Glasgow, MT

11:24 AM MST on February 21, 2017 (GMT -0700)
Wokal-Glasgow International

Weather History for KGGW - October, 2012

Change the Weather History Date:

Saturday, October 27, 2012

  Actual Average Record
Temperature  
Mean Temperature 28 °F 40 °F  
Max Temperature 31 °F 51 °F 78 °F (2001)
Min Temperature 24 °F 28 °F 4 °F (1925)
Degree Days  
Heating Degree Days 37 25  
Month to date heating degree days 609 524  
Since 1 July heating degree days 765 818  
Cooling Degree Days 0 0  
Month to date cooling degree days 0 0  
Year to date cooling degree days 681 532  
Moisture  
Dew Point 21 °F    
Average Humidity 79    
Maximum Humidity 88    
Minimum Humidity 69    
Precipitation  
Precipitation T in 0.01 in 0.36 in (1929)
Month to date precipitation 0.96 0.69  
Year to date precipitation 11.81 10.80  
Snow  
Snow T in 0.10 in 1.10 in (1984)
Month to date snowfall 1.0 1.1  
Since 1 July snowfall 1.0 1.3  
Since 1 September snowfall 1.0 1.3  
Snow Depth 0.00 in    
Sea Level Pressure  
Sea Level Pressure 30.24 in    
Wind  
Wind Speed 12 mph (ESE)    
Max Wind Speed 21 mph    
Max Gust Speed 24 mph    
Visibility 10 miles    
Events Snow    
T = Trace of Precipitation, MM = Missing Value Source: NWS Daily Summary

Daily Weather History Graph

Daily Weather History Graph

Search for Another Location

Airport or City:

Trip Planner

Search our weather history database for the weather conditions in past years. The results will help you decide how hot, cold, wet, or windy it might be!

Date:

Astronomy

Oct. 27, 2012 Rise Set
Actual Time 7:44 AM MDT 5:54 PM MDT
Civil Twilight 7:12 AM MDT 6:27 PM MDT
Nautical Twilight 6:36 AM MDT 7:03 PM MDT
Astronomical Twilight 6:00 AM MDT 7:39 PM MDT
Moon 4:46 PM MDT (10/27) 5:36 AM MDT (10/27)
Length of Visible Light 11h 14m
Length of Day
10h 09m
Waxing Gibbous, 96% of the Moon is Illuminated
Oct 27
Waxing Gibbous
Oct 29
Full
Nov 6
Last Quarter
Nov 13
New
Nov 20
First Quarter

Hourly Weather History & Observations

Time (MDT) Temp. Windchill Dew Point Humidity Pressure Visibility Wind Dir Wind Speed Gust Speed Precip Events Conditions
12:53 AM 24.1 °F 15.2 °F 21.0 °F 88% 30.29 in 10.0 mi East 8.1 mph - N/A   Overcast
1:53 AM 24.1 °F 18.2 °F 21.0 °F 88% 30.28 in 10.0 mi East 4.6 mph - N/A   Overcast
2:53 AM 24.1 °F 17.0 °F 21.0 °F 88% 30.27 in 10.0 mi East 5.8 mph - N/A   Overcast
3:53 AM 24.1 °F 16.0 °F 19.9 °F 84% 30.27 in 10.0 mi East 6.9 mph - N/A   Overcast
4:53 AM 24.1 °F 17.0 °F 19.9 °F 84% 30.27 in 10.0 mi East 5.8 mph - N/A   Overcast
5:53 AM 24.1 °F 17.0 °F 21.0 °F 88% 30.29 in 10.0 mi East 5.8 mph - N/A   Overcast
6:53 AM 25.0 °F 16.3 °F 19.9 °F 81% 30.29 in 10.0 mi East 8.1 mph - N/A   Overcast
7:53 AM 24.1 °F 14.4 °F 19.9 °F 84% 30.30 in 10.0 mi East 9.2 mph - N/A   Overcast
8:53 AM 25.0 °F 16.3 °F 19.9 °F 81% 30.31 in 10.0 mi East 8.1 mph - N/A   Overcast
9:53 AM 25.0 °F 14.2 °F 19.9 °F 81% 30.30 in 10.0 mi East 11.5 mph - N/A   Overcast
10:53 AM 26.1 °F 15.6 °F 19.9 °F 78% 30.29 in 10.0 mi ESE 11.5 mph - N/A   Overcast
11:53 AM 27.0 °F 15.2 °F 19.9 °F 75% 30.29 in 10.0 mi ESE 15.0 mph - N/A   Overcast
12:53 PM 28.9 °F 18.6 °F 21.0 °F 72% 30.27 in 10.0 mi East 12.7 mph - N/A   Overcast
1:24 PM 28.4 °F 18.5 °F 21.2 °F 74% 30.17 in 10.0 mi ESE 11.5 mph - N/A   Mostly Cloudy
1:53 PM 28.9 °F 19.2 °F 21.9 °F 75% 30.25 in 10.0 mi East 11.5 mph - N/A   Overcast
2:30 PM 28.4 °F 17.5 °F 21.2 °F 74% 30.15 in 10.0 mi ESE 13.8 mph - N/A   Scattered Clouds
2:53 PM 30.0 °F 20.5 °F 23.0 °F 75% 30.24 in 10.0 mi SE 11.5 mph - N/A   Mostly Cloudy
3:33 PM 30.2 °F 21.3 °F 21.2 °F 69% 30.14 in 10.0 mi ESE 10.4 mph - N/A   Mostly Cloudy
3:53 PM 30.9 °F 21.2 °F 23.0 °F 72% 30.24 in 10.0 mi SE 12.7 mph - N/A   Partly Cloudy
4:53 PM 30.0 °F 20.0 °F 21.9 °F 72% 30.24 in 10.0 mi ESE 12.7 mph - N/A   Scattered Clouds
5:53 PM 28.9 °F 18.6 °F 23.0 °F 78% 30.24 in 10.0 mi ESE 12.7 mph - N/A   Overcast
6:53 PM 28.9 °F 18.2 °F 23.0 °F 78% 30.25 in 10.0 mi ESE 13.8 mph - N/A   Overcast
7:53 PM 28.0 °F 17.0 °F 23.0 °F 81% 30.26 in 7.0 mi ESE 13.8 mph - 0.00 in Snow Light Snow
8:53 PM 28.0 °F 15.7 °F 23.0 °F 81% 30.24 in 9.0 mi ESE 17.3 mph - 0.00 in   Overcast
9:53 PM 28.0 °F 15.7 °F 21.9 °F 78% 30.22 in 10.0 mi ESE 17.3 mph - N/A   Overcast
10:03 PM 28.4 °F 16.2 °F 21.2 °F 74% 30.12 in 10.0 mi ESE 17.3 mph - N/A   Overcast
10:53 PM 28.0 °F 14.9 °F 23.0 °F 81% 30.22 in 10.0 mi ESE 19.6 mph - N/A   Overcast
11:22 PM 28.4 °F 18.0 °F 23.0 °F 80% 30.12 in 10.0 mi ESE 12.7 mph - N/A   Overcast
11:53 PM 28.0 °F 15.7 °F 23.0 °F 81% 30.21 in 10.0 mi ESE 17.3 mph - N/A   Overcast